{"data":{"norad_id":68745,"intl_designator":"2026-082T","name":"STARLINK-37267","alt_names":[],"object_type":"PAYLOAD","status":"ACTIVE","operator":null,"country":"US","launch_date":"2026-04-15","launch_site_code":"AFWTR","launch_vehicle":null,"mission":null,"orbit_class":"UNKNOWN","rcs_meters":null,"size_class":null,"mass_kg":null,"dimensions":null,"purposes":["comms"],"wikipedia_slug":null,"has_3d_model":false,"image_url":null,"decayed_at":null,"tle_current":{"epoch":"2026-05-25T04:00:03.998880Z","epoch_age_seconds":54606,"freshness":"FRESH","line1":"1 68745U 26082T   26145.16671295 -.01869053  00000+0 -34126-1 0  9993","line2":"2 68745  97.2854   8.8141 0001970  92.5995  77.8043 15.52843729  6006","mean_motion":15.52843729,"eccentricity":0.000197,"inclination_deg":97.2854,"raan_deg":8.8141,"arg_perigee_deg":92.5995,"mean_anomaly_deg":77.8043,"bstar":-0.034126,"rev_number":600,"period_min":92.733091753369,"perigee_km":407.0909417535,"apogee_km":409.76484832215,"semimajor_km":6786.5648950378,"source":"CELESTRAK","updated_at":"2026-05-25T13:38:22.029790Z"}}}